Location: Unspecified
(0.0000°N, 0.0000°E)
Time: 17:49:43
(UTC+00:00)

CZ-4 DEB - Pass Details

Date: 20 June 2024
Orbit: 785 x 976 km, 99.1° (Epoch: 15 July)

Event Time Altitude Azimuth Distance (km) Brightness Sun altitude
Exits shadow 21:06:40 21° 261° (W) 2,015 ? -41.5°
Drops below altitude 10° 21:10:44 10° 303° (WNW) 2,704 ? -42.3°
Sets 21:13:52 0° 319° (NW) 3,659 ? -43.0°
